Time,TemperatureF,DewpointF,PressureIn,WindDirection,WindDirectionDegrees,WindSpeedMPH,WindSpeedGustMPH,Humidity,HourlyPrecipIn,Conditions,Clouds,dailyrainin,SolarRadiationWatts/m^2,SoftwareType,DateUTC
2013-04-10 00:02:00,44.0,42.0,-100.00,South,185,5.0,15.0,92,0.00,,,0.03,0.000000,,2013-04-10 07:02:00,
2013-04-10 00:12:00,44.0,42.0,-100.00,South,185,5.0,15.0,92,0.00,,,0.03,0.000000,,2013-04-10 07:12:00,
2013-04-10 00:22:00,44.0,42.0,-100.00,South,185,5.0,15.0,92,0.00,,,0.03,0.000000,,2013-04-10 07:22:00,
2013-04-10 00:52:00,44.0,42.0,-100.00,South,182,6.0,19.0,93,0.01,,,0.04,0.000000,,2013-04-10 07:52:00,
2013-04-10 01:02:00,44.0,42.0,-100.00,South,182,6.0,19.0,93,0.01,,,0.04,0.000000,,2013-04-10 08:02:00,
2013-04-10 01:12:00,44.0,42.0,-100.00,South,182,6.0,19.0,93,0.01,,,0.04,0.000000,,2013-04-10 08:12:00,
2013-04-10 01:22:00,44.0,42.0,-100.00,South,182,6.0,19.0,93,0.01,,,0.04,0.000000,,2013-04-10 08:22:00,
2013-04-10 01:52:00,44.0,42.0,-100.00,South,183,5.0,13.0,93,0.01,,,0.05,0.000000,,2013-04-10 08:52:00,
2013-04-10 02:02:00,44.0,42.0,-100.00,South,183,5.0,13.0,93,0.01,,,0.05,0.000000,,2013-04-10 09:02:00,
2013-04-10 02:12:00,44.0,42.0,-100.00,South,183,5.0,13.0,93,0.01,,,0.05,0.000000,,2013-04-10 09:12:00,
2013-04-10 02:22:00,44.0,42.0,-100.00,South,183,5.0,13.0,93,0.01,,,0.05,0.000000,,2013-04-10 09:22:00,
2013-04-10 02:53:00,44.0,42.0,-100.00,SSW,193,4.0,18.0,94,0.02,,,0.07,0.000000,,2013-04-10 09:53:00,
2013-04-10 03:02:00,44.0,42.0,-100.00,SSW,193,4.0,18.0,94,0.02,,,0.07,0.000000,,2013-04-10 10:02:00,
2013-04-10 03:12:00,44.0,42.0,-100.00,SSW,193,4.0,18.0,94,0.02,,,0.07,0.000000,,2013-04-10 10:12:00,
2013-04-10 03:23:00,44.0,42.0,-100.00,SSW,193,4.0,18.0,94,0.02,,,0.07,0.000000,,2013-04-10 10:23:00,
2013-04-10 03:52:00,44.0,42.0,-100.00,SSW,196,5.0,17.0,94,0.02,,,0.09,0.000000,,2013-04-10 10:52:00,
2013-04-10 04:02:00,44.0,42.0,-100.00,SSW,196,5.0,17.0,94,0.02,,,0.09,0.000000,,2013-04-10 11:02:00,
2013-04-10 04:12:00,44.0,42.0,-100.00,SSW,196,5.0,17.0,94,0.02,,,0.09,0.000000,,2013-04-10 11:12:00,
2013-04-10 04:22:00,44.0,42.0,-100.00,SSW,196,5.0,17.0,94,0.02,,,0.09,0.000000,,2013-04-10 11:22:00,
2013-04-10 06:53:00,44.0,43.0,-100.00,SSE,160,5.0,24.0,95,-99.99,,,0.45,0.000000,,2013-04-10 13:53:00,
2013-04-10 07:02:00,44.0,43.0,-100.00,SSE,160,5.0,24.0,95,-99.99,,,0.45,0.000000,,2013-04-10 14:02:00,
2013-04-10 07:12:00,44.0,43.0,-100.00,SSE,160,5.0,24.0,95,-99.99,,,0.45,0.000000,,2013-04-10 14:12:00,
2013-04-10 07:21:00,44.0,43.0,-100.00,SSE,160,5.0,24.0,95,-99.99,,,0.45,0.000000,,2013-04-10 14:21:00,
2013-04-10 07:52:00,43.0,42.0,-100.00,South,184,8.0,20.0,95,0.31,,,0.76,1.000000,,2013-04-10 14:52:00,
2013-04-10 08:02:00,43.0,42.0,-100.00,South,184,8.0,20.0,95,0.31,,,0.76,1.000000,,2013-04-10 15:02:00,
2013-04-10 08:12:00,43.0,42.0,-100.00,South,184,8.0,20.0,95,0.31,,,0.76,1.000000,,2013-04-10 15:12:00,
2013-04-10 08:22:00,43.0,42.0,-100.00,South,184,8.0,20.0,95,0.31,,,0.76,1.000000,,2013-04-10 15:22:00,
2013-04-10 08:52:00,42.0,40.0,-100.00,SW,229,6.0,18.0,94,0.34,,,1.09,4.000000,,2013-04-10 15:52:00,
2013-04-10 09:02:00,42.0,40.0,-100.00,SW,229,6.0,18.0,94,0.34,,,1.09,4.000000,,2013-04-10 16:02:00,
2013-04-10 09:12:00,42.0,40.0,-100.00,SW,229,6.0,18.0,94,0.34,,,1.09,4.000000,,2013-04-10 16:12:00,
2013-04-10 09:23:00,42.0,40.0,-100.00,SW,229,6.0,18.0,94,0.34,,,1.09,4.000000,,2013-04-10 16:23:00,
2013-04-10 09:53:00,39.0,37.0,-100.00,West,264,17.0,31.0,92,0.26,,,1.35,15.000000,,2013-04-10 16:53:00,
2013-04-10 10:02:00,39.0,37.0,-100.00,West,264,17.0,31.0,92,0.26,,,1.35,15.000000,,2013-04-10 17:02:00,
2013-04-10 10:12:00,39.0,37.0,-100.00,West,264,17.0,31.0,92,0.26,,,1.35,15.000000,,2013-04-10 17:12:00,
2013-04-10 10:22:00,39.0,37.0,-100.00,West,264,17.0,31.0,92,0.26,,,1.35,15.000000,,2013-04-10 17:22:00,
2013-04-10 10:52:00,38.0,36.0,-100.00,WSW,246,8.0,32.0,93,0.11,,,1.45,93.000000,,2013-04-10 17:52:00,
2013-04-10 11:02:00,38.0,36.0,-100.00,WSW,246,8.0,32.0,93,0.11,,,1.45,93.000000,,2013-04-10 18:02:00,
2013-04-10 11:12:00,38.0,36.0,-100.00,WSW,246,8.0,32.0,93,0.11,,,1.45,93.000000,,2013-04-10 18:12:00,
2013-04-10 11:22:00,38.0,36.0,-100.00,WSW,246,8.0,32.0,93,0.11,,,1.45,93.000000,,2013-04-10 18:22:00,
2013-04-10 11:52:00,39.0,38.0,-100.00,West,259,9.0,20.0,95,0.01,,,1.46,148.000000,,2013-04-10 18:52:00,
2013-04-10 12:02:00,39.0,38.0,-100.00,West,259,9.0,20.0,95,0.01,,,1.46,148.000000,,2013-04-10 19:02:00,
2013-04-10 12:12:00,39.0,38.0,-100.00,West,259,9.0,20.0,95,0.01,,,1.46,148.000000,,2013-04-10 19:12:00,
2013-04-10 12:22:00,39.0,38.0,-100.00,West,259,9.0,20.0,95,0.01,,,1.46,148.000000,,2013-04-10 19:22:00,
2013-04-10 12:53:00,39.0,37.0,-100.00,WSW,250,9.0,23.0,93,0.00,,,1.46,192.000000,,2013-04-10 19:53:00,
2013-04-10 13:02:00,39.0,37.0,-100.00,WSW,250,9.0,23.0,93,0.00,,,1.46,192.000000,,2013-04-10 20:02:00,
2013-04-10 13:12:00,39.0,37.0,-100.00,WSW,250,9.0,23.0,93,0.00,,,1.46,192.000000,,2013-04-10 20:12:00,
2013-04-10 13:22:00,39.0,37.0,-100.00,WSW,250,9.0,23.0,93,0.00,,,1.46,192.000000,,2013-04-10 20:22:00,
2013-04-10 13:52:00,39.0,37.0,-100.00,WSW,242,8.0,24.0,92,0.01,,,1.47,229.000000,,2013-04-10 20:52:00,
2013-04-10 14:02:00,39.0,37.0,-100.00,WSW,242,8.0,24.0,92,0.01,,,1.47,229.000000,,2013-04-10 21:02:00,
2013-04-10 14:12:00,39.0,37.0,-100.00,WSW,242,8.0,24.0,92,0.01,,,1.47,229.000000,,2013-04-10 21:12:00,
2013-04-10 14:22:00,39.0,37.0,-100.00,WSW,242,8.0,24.0,92,0.01,,,1.47,229.000000,,2013-04-10 21:22:00,
2013-04-10 14:53:00,40.0,37.0,-100.00,WSW,245,5.0,27.0,89,0.00,,,1.47,215.000000,,2013-04-10 21:53:00,
2013-04-10 15:03:00,40.0,37.0,-100.00,WSW,245,5.0,27.0,89,0.00,,,1.47,215.000000,,2013-04-10 22:03:00,
2013-04-10 15:12:00,40.0,37.0,-100.00,WSW,245,5.0,27.0,89,0.00,,,1.47,215.000000,,2013-04-10 22:12:00,
2013-04-10 15:22:00,40.0,37.0,-100.00,WSW,245,5.0,27.0,89,0.00,,,1.47,215.000000,,2013-04-10 22:22:00,
2013-04-10 15:53:00,41.0,37.0,-100.00,SSW,207,4.0,20.0,85,0.00,,,1.47,217.000000,,2013-04-10 22:53:00,
2013-04-10 16:02:00,41.0,37.0,-100.00,SSW,207,4.0,20.0,85,0.00,,,1.47,217.000000,,2013-04-10 23:02:00,
2013-04-10 16:12:00,41.0,37.0,-100.00,SSW,207,4.0,20.0,85,0.00,,,1.47,217.000000,,2013-04-10 23:12:00,
2013-04-10 16:22:00,41.0,37.0,-100.00,SSW,207,4.0,20.0,85,0.00,,,1.47,217.000000,,2013-04-10 23:22:00,
2013-04-10 16:53:00,40.0,36.0,-100.00,South,187,4.0,13.0,87,0.00,,,1.47,164.000000,,2013-04-10 23:53:00,
2013-04-10 17:02:00,40.0,36.0,-100.00,South,187,4.0,13.0,87,0.00,,,1.47,164.000000,,2013-04-11 00:02:00,
2013-04-10 17:12:00,40.0,36.0,-100.00,South,187,4.0,13.0,87,0.00,,,1.47,164.000000,,2013-04-11 00:12:00,
2013-04-10 17:22:00,40.0,36.0,-100.00,South,187,4.0,13.0,87,0.00,,,1.47,164.000000,,2013-04-11 00:22:00,
2013-04-10 17:53:00,40.0,37.0,-100.00,WSW,252,5.0,12.0,90,0.00,,,1.47,119.000000,,2013-04-11 00:53:00,
2013-04-10 18:02:00,40.0,37.0,-100.00,WSW,252,5.0,12.0,90,0.00,,,1.47,119.000000,,2013-04-11 01:02:00,
2013-04-10 18:12:00,40.0,37.0,-100.00,WSW,252,5.0,12.0,90,0.00,,,1.47,119.000000,,2013-04-11 01:12:00,
2013-04-10 18:22:00,40.0,37.0,-100.00,WSW,252,5.0,12.0,90,0.00,,,1.47,119.000000,,2013-04-11 01:22:00,
2013-04-10 18:52:00,39.0,36.0,-100.00,SSW,192,1.0,11.0,88,0.00,,,1.47,103.000000,,2013-04-11 01:52:00,
2013-04-10 19:02:00,39.0,36.0,-100.00,SSW,192,1.0,11.0,88,0.00,,,1.47,103.000000,,2013-04-11 02:02:00,
2013-04-10 19:12:00,39.0,36.0,-100.00,SSW,192,1.0,11.0,88,0.00,,,1.47,103.000000,,2013-04-11 02:12:00,
2013-04-10 19:22:00,39.0,36.0,-100.00,SSW,192,1.0,11.0,88,0.00,,,1.47,103.000000,,2013-04-11 02:22:00,
2013-04-10 19:53:00,39.0,36.0,-100.00,WSW,246,3.0,8.0,90,0.00,,,1.47,44.000000,,2013-04-11 02:53:00,
2013-04-10 20:02:00,39.0,36.0,-100.00,WSW,246,3.0,8.0,90,0.00,,,1.47,44.000000,,2013-04-11 03:02:00,
2013-04-10 20:12:00,39.0,36.0,-100.00,WSW,246,3.0,8.0,90,0.00,,,1.47,44.000000,,2013-04-11 03:12:00,
2013-04-10 20:22:00,39.0,36.0,-100.00,WSW,246,3.0,8.0,90,0.00,,,1.47,44.000000,,2013-04-11 03:22:00,
2013-04-10 20:53:00,37.0,35.0,-100.00,SE,133,1.0,9.0,94,0.00,,,1.47,6.000000,,2013-04-11 03:53:00,
2013-04-10 21:03:00,37.0,35.0,-100.00,SE,133,1.0,9.0,94,0.00,,,1.47,6.000000,,2013-04-11 04:03:00,
2013-04-10 21:12:00,37.0,35.0,-100.00,SE,133,1.0,9.0,94,0.00,,,1.47,6.000000,,2013-04-11 04:12:00,
2013-04-10 21:22:00,37.0,35.0,-100.00,SE,133,1.0,9.0,94,0.00,,,1.47,6.000000,,2013-04-11 04:22:00,
2013-04-10 21:53:00,37.0,35.0,-100.00,SSW,197,1.0,8.0,94,0.01,,,1.48,0.000000,,2013-04-11 04:53:00,
2013-04-10 22:02:00,37.0,35.0,-100.00,SSW,197,1.0,8.0,94,0.01,,,1.48,0.000000,,2013-04-11 05:02:00,
2013-04-10 22:12:00,37.0,35.0,-100.00,SSW,197,1.0,8.0,94,0.01,,,1.48,0.000000,,2013-04-11 05:12:00,
2013-04-10 22:22:00,37.0,35.0,-100.00,SSW,197,1.0,8.0,94,0.01,,,1.48,0.000000,,2013-04-11 05:22:00,
2013-04-10 22:52:00,37.0,36.0,-100.00,South,190,2.0,10.0,95,0.01,,,1.48,0.000000,,2013-04-11 05:52:00,
2013-04-10 23:02:00,37.0,36.0,-100.00,South,190,2.0,10.0,95,0.01,,,1.48,0.000000,,2013-04-11 06:02:00,
2013-04-10 23:12:00,37.0,36.0,-100.00,South,190,2.0,10.0,95,0.01,,,1.48,0.000000,,2013-04-11 06:12:00,
2013-04-10 23:22:00,37.0,36.0,-100.00,South,190,2.0,10.0,95,0.01,,,1.48,0.000000,,2013-04-11 06:22:00,
2013-04-10 23:52:00,36.0,35.0,-100.00,SSW,211,2.0,8.0,95,0.01,,,1.49,0.000000,,2013-04-11 06:52:00,